This demonstration page uses our WeatherBlox Daily Observations layout. Learn more.

Left ArrowRight Arrow

41.86663, -103.66717

Hourly Observations for July 23, 2017

Temp ( °F °C ) Dew Point ( °F °C ) Humidity (%) Winds ( mph kmh ) Pressure ( in mb ) Visibility ( mi km ) Precip ( " mm )
12:53 am 00:53 Clear 67 19.4 50 10 55 55 E 6 9 29.97 1015 10 16 0.00 0.00
1:53 am 01:53 Clear 65 18.3 51 10.6 61 61 E 6 9 29.97 1015 10 16 0.00 0.00
2:53 am 02:53 Clear 63 17.2 52 11.1 68 68 E 5 7 29.96 1015 10 16 0.00 0.00
3:53 am 03:53 Clear 63 17.2 52 11.1 68 68 Calm 29.95 1014 10 16 0.00 0.00
4:53 am 04:53 Clear 61 16.1 52 11.1 72 72 NNE 6 9 29.96 1015 10 16 0.00 0.00
5:53 am 05:53 Sunny 59 15 53 11.7 81 81 Calm 29.98 1015 10 16 0.00 0.00
6:53 am 06:53 Sunny 65 18.3 53 11.7 66 66 Calm 29.99 1016 10 16 0.00 0.00
7:53 am 07:53 Sunny 68 20 53 11.7 59 59 E 3 6 30.00 1016 10 16 0.00 0.00
8:53 am 08:53 Sunny 75 23.9 55 12.8 50 50 VRB 3 6 29.99 1016 10 16 0.00 0.00
9:53 am 09:53 Sunny 80 26.7 54 12.2 41 41 E 9 15 29.99 1016 10 16 0.00 0.00
10:53 am 10:53 Sunny 84 28.9 55 12.8 37 37 E 7 11 29.98 1015 10 16 0.00 0.00
11:53 am 11:53 Sunny 87 30.6 55 12.8 34 34 E 8 13 29.96 1015 10 16 0.00 0.00
12:53 pm 12:53 Sunny 91 32.8 55 12.8 30 30 E 10 17 29.93 1014 10 16 0.00 0.00
1:53 pm 13:53 Sunny 93 33.9 55 12.8 28 28 E 10 17 29.91 1013 10 16 0.00 0.00
2:53 pm 14:53 Sunny 95 35 52 11.1 23 23 ESE 13 20 29.89 1012 10 16 0.00 0.00
3:53 pm 15:53 Sunny 96 35.6 46 7.8 18 18 ESE 12 19 29.87 1012 10 16 0.00 0.00
4:53 pm 16:53 Sunny 96 35.6 49 9.4 20 20 E 13 20 29.85 1011 10 16 0.00 0.00
5:53 pm 17:53 Sunny 93 33.9 53 11.7 26 26 E 10 17 29.85 1011 10 16 0.00 0.00
6:53 pm 18:53 Sunny 88 31.1 53 11.7 30 30 E 10 17 29.83 1010 10 16 0.00 0.00
7:53 pm 19:53 Sunny 83 28.3 53 11.7 36 36 E 8 13 29.83 1010 10 16 0.00 0.00
8:53 pm 20:53 Clear 76 24.4 54 12.2 47 47 ESE 7 11 29.84 1011 8 13 0.00 0.00
9:53 pm 21:53 Clear 74 23.3 52 11.1 46 46 E 7 11 29.85 1011 10 16 0.00 0.00
10:53 pm 22:53 Clear 79 26.1 48 8.9 34 34 S 7 11 29.83 1010 10 16 0.00 0.00
11:53 pm 23:53 Clear 80 26.7 49 9.4 34 34 S 9 15 29.83 1010 10 16 0.00 0.00

Powered by AerisWeather